Wind_Speed
17 17 10 3 4 5 3 6 4 14 6 17 20 19 19 15 5 5 13 22 23 20 21 17 14 5 7 6 9 7 9 9 13 14 18 20 21 25 27 27 25 22 18 16 15 15 17 20 23
20 15 4 2 4 3 2 4 13 9 8 17 16 15 14 9 9 4 10 26 22 18 20 19 9 9 7 7 7 5 8 9 10 13 15 18 20 24 24 22 21 19 19 15 15 16 17 23 24
16 5 3 4 3 1 3 6 2 12 15 7 8 14 10 9 10 5 18 21 21 18 17 21 21 20 13 6 6 3 8 9 10 12 15 18 18 19 20 19 9 8 15 15 15 15 20 23 24
5 6 4 5 6 10 5 8 7 6 12 13 13 11 5 7 4 6 19 25 28 27 23 22 23 22 25 12 7 4 6 8 11 12 12 15 15 16 15 7 6 10 15 19 13 13 21 22 24
4 3 5 7 13 5 8 6 20 17 10 14 8 12 9 6 11 15 24 27 29 33 28 25 20 21 22 21 13 7 3 5 9 12 14 14 14 12 11 6 11 15 19 20 13 16 20 21 25
4 3 5 6 7 4 5 10 19 21 14 13 17 11 11 8 15 21 30 35 35 33 33 31 21 12 19 20 18 12 7 4 6 12 15 14 12 11 12 13 19 19 21 17 12 18 18 20 23
6 6 8 8 8 15 12 2 15 15 17 18 8 12 7 23 16 22 23 34 35 36 34 33 32 22 4 14 14 16 7 5 1 9 14 14 13 12 15 19 22 21 20 19 12 17 17 19 20
5 5 4 4 7 8 11 22 12 17 18 8 7 9 9 13 28 26 26 25 29 32 34 35 34 32 20 18 12 13 14 5 3 3 12 14 13 10 17 19 23 23 23 20 15 20 18 19 19
5 5 4 3 4 4 6 15 19 17 20 24 22 19 18 24 31 30 28 26 32 32 33 31 36 34 27 21 20 14 15 11 5 1 7 15 15 15 19 21 24 23 21 20 15 20 19 19 18
6 5 7 5 11 14 12 19 15 13 18 19 17 21 25 30 31 29 30 26 31 33 32 30 37 38 30 24 25 22 16 15 14 9 2 13 17 20 21 22 24 23 22 18 16 19 20 20 19
5 6 7 9 18 17 18 25 7 17 16 15 16 15 22 27 29 29 29 27 29 30 33 33 38 36 35 30 25 26 21 20 16 13 6 9 19 21 22 24 24 23 21 20 17 19 21 21 20
10 5 8 8 8 14 20 19 21 19 13 16 17 21 23 23 24 25 27 27 28 31 32 34 35 35 32 34 28 26 24 22 22 17 15 7 20 27 28 28 27 26 24 22 19 20 21 21 19
11 6 15 20 18 17 20 22 18 18 15 20 23 23 20 21 22 25 26 27 27 29 31 33 34 35 30 34 34 29 25 24 22 20 18 12 9 23 27 29 30 29 26 25 23 23 24 23 19
10 21 13 11 13 13 20 15 7 10 13 17 17 15 19 22 23 25 28 26 28 28 30 32 33 35 32 32 35 32 28 22 22 19 20 15 8 8 25 30 32 31 29 27 27 26 26 25 20
8 12 19 17 6 7 11 16 7 3 14 15 13 12 14 19 24 23 29 28 28 28 30 34 32 33 32 29 33 32 29 25 23 23 21 18 13 4 22 28 30 30 31 29 28 27 26 26 22
8 7 6 7 15 7 9 2 4 5 13 10 11 10 11 13 22 27 31 31 32 32 33 36 38 35 32 29 30 31 30 27 23 25 23 21 17 12 7 17 29 29 31 29 27 31 30 27 25
8 3 5 9 6 4 5 5 3 6 10 8 8 8 10 8 20 26 29 29 31 32 33 35 36 37 34 29 29 29 25 27 25 25 26 24 21 17 4 17 16 20 25 27 24 24 30 25 22
4 4 4 4 6 10 12 5 3 4 9 7 7 7 7 7 8 22 26 27 28 30 31 32 32 35 34 30 29 27 26 25 26 30 28 25 23 19 14 3 13 19 20 23 23 19 29 28 19
8 7 7 8 8 5 9 6 3 3 8 8 6 6 6 6 10 18 21 23 25 27 29 30 31 32 34 34 33 32 31 29 29 31 28 27 24 22 16 10 3 15 21 23 20 25 21 26 23
8 7 3 10 10 9 7 6 2 3 2 5 4 2 2 4 5 12 17 20 23 24 25 27 29 29 28 30 31 27 28 28 26 27 28 28 25 23 20 16 6 4 19 18 23 21 18 20 24
2 10 11 6 11 8 6 5 4 2 3 4 2 0 2 2 4 7 14 16 18 21 22 25 26 27 25 29 27 29 25 28 29 31 32 30 26 23 21 19 13 6 9 17 20 23 22 15 24
5 8 8 6 3 1 1 4 5 2 1 1 2 3 4 5 6 8 10 13 15 17 19 21 24 24 24 26 27 27 24 22 25 25 30 28 26 24 22 21 17 10 2 13 17 19 27 24 19
4 7 5 3 4 4 3 3 5 2 4 4 3 2 4 3 5 8 13 14 16 15 15 17 20 21 23 23 26 24 24 22 23 24 25 26 27 26 23 23 19 15 9 2 14 20 23 26 24
7 5 5 5 2 3 4 3 5 4 5 4 2 1 3 4 5 9 10 12 14 14 12 14 18 19 21 21 23 26 24 26 25 25 25 25 25 26 26 24 21 16 13 7 3 16 22 26 27
7 5 3 5 5 4 3 2 8 5 6 5 5 2 2 2 4 5 7 9 11 13 14 11 14 17 17 17 20 24 24 24 24 25 23 25 26 26 27 28 23 19 16 11 6 5 24 29 31
4 5 4 3 3 6 6 5 6 7 7 6 1 4 2 1 1 3 5 6 9 11 12 12 12 14 13 16 19 21 23 22 24 23 23 23 25 24 24 25 23 19 17 13 9 7 10 27 28
3 3 4 2 3 2 3 7 8 6 8 6 4 1 2 1 3 4 5 5 9 10 11 13 13 13 11 14 17 18 21 22 22 22 23 22 25 22 23 22 22 19 18 15 11 10 8 16 26
4 3 3 3 2 5 6 6 5 5 7 5 7 6 6 5 4 6 7 6 12 10 12 13 14 10 12 14 16 18 19 20 21 20 23 21 25 22 22 21 19 20 16 15 12 10 8 6 18
2 0 2 3 4 3 3 7 7 6 6 7 8 7 5 6 6 5 5 9 14 11 10 11 12 9 11 13 15 16 17 18 20 20 23 21 21 20 20 21 20 15 18 18 16 12 10 7 9
3 5 5 3 4 4 4 7 5 8 8 8 8 6 7 6 6 7 8 10 16 9 11 10 6 9 12 14 15 16 16 16 20 21 23 21 19 17 18 18 17 20 21 20 18 15 13 11 9
Wind_Direction
335 344 320 57 57 64 302 43 284 27 77 53 64 78 89 54 16 68 332 348 353 7 21 38 30 3 25 53 80 94 106 125 124 133 136 139 142 142 141 138 137 131 125 122 123 126 131 131 131
332 346 48 77 75 58 44 329 60 37 119 113 63 60 53 63 32 60 7 359 1 1 37 28 57 40 20 46 98 109 116 120 128 132 135 137 142 140 137 137 135 132 124 118 119 125 133 135 133
330 4 72 83 75 42 140 330 222 75 47 43 108 46 44 342 48 17 358 7 13 26 38 30 58 53 45 48 72 103 117 122 131 137 132 137 142 141 139 138 147 165 178 143 121 126 135 136 134
345 22 27 68 109 15 51 340 300 76 58 56 118 58 76 15 47 25 24 23 25 23 31 49 41 48 44 57 51 52 118 127 132 140 144 148 148 148 148 147 164 141 157 157 138 133 139 140 134
61 61 55 79 54 67 28 30 54 59 64 63 77 90 69 63 71 55 39 30 30 30 25 18 53 22 45 37 44 52 73 121 135 145 161 159 156 163 167 151 142 142 132 134 138 150 147 145 136
36 98 65 68 74 74 50 25 54 56 63 73 78 87 51 76 71 48 40 39 36 28 30 31 19 29 11 20 38 35 60 75 161 159 163 170 170 174 168 152 145 144 138 135 156 159 158 149 144
107 78 84 101 92 49 18 324 47 64 54 38 84 86 55 44 54 40 37 40 35 34 29 26 26 23 349 16 27 36 53 86 116 186 181 183 172 174 175 159 153 148 140 137 173 169 165 158 151
97 80 66 57 83 66 59 64 58 55 38 51 40 47 57 39 50 48 37 43 38 32 32 25 20 23 22 19 13 28 43 48 107 220 197 194 190 200 182 170 166 158 155 152 176 177 172 163 158
67 60 43 21 72 72 358 83 71 73 76 66 67 73 64 50 45 42 33 39 31 31 29 27 20 17 20 20 20 17 34 38 45 104 224 204 203 193 191 185 177 172 170 168 172 179 174 169 166
71 77 31 28 97 95 78 72 74 82 69 66 71 63 58 49 43 39 32 31 25 23 25 27 18 16 15 20 22 22 22 23 34 39 226 214 208 202 196 191 183 178 177 178 175 182 180 178 173
44 103 132 87 118 101 87 65 70 87 67 68 77 64 55 52 44 38 35 33 28 24 25 23 17 14 15 14 10 19 24 10 13 39 40 227 212 206 195 190 189 184 184 188 183 184 187 186 181
78 69 99 121 97 85 81 87 72 68 72 74 77 71 60 52 47 40 37 32 29 27 26 19 16 13 12 11 10 12 15 17 7 10 20 40 218 204 199 192 192 186 191 190 190 192 192 193 191
86 99 65 89 85 82 77 70 75 54 54 62 63 61 54 50 45 43 43 41 35 30 26 22 18 14 10 9 9 4 7 13 4 10 12 20 24 212 205 199 198 195 195 193 195 197 196 198 197
76 73 67 63 86 75 74 48 66 31 60 56 59 54 52 51 43 36 33 36 35 29 26 22 19 17 9 8 8 8 8 9 12 6 6 14 20 246 218 204 205 201 205 202 203 198 200 200 201
91 82 62 32 5 117 103 41 65 10 61 59 53 52 50 42 43 40 38 40 34 30 26 23 18 20 15 9 5 5 6 11 11 3 10 9 19 351 208 208 203 207 207 207 210 203 201 201 204
28 44 36 29 32 2 77 98 330 16 70 50 47 44 43 35 45 45 43 43 39 35 27 24 20 17 13 11 4 1 5 9 15 1 11 11 17 18 200 220 212 215 206 209 209 203 196 204 208
18 14 28 344 29 8 85 131 319 43 72 57 40 32 36 18 36 41 42 47 39 35 29 23 19 17 10 7 6 5 4 5 8 10 7 6 17 20 49 213 223 215 207 213 215 192 191 201 210
3 37 317 318 308 71 83 133 116 60 78 72 53 38 33 28 11 39 40 47 42 34 28 23 16 15 10 5 5 5 7 1 5 10 1 6 14 15 33 160 234 226 214 215 207 190 189 197 204
73 35 346 309 281 48 132 120 109 69 69 60 45 43 31 20 30 42 38 46 43 38 32 21 16 12 11 5 3 360 2 357 7 4 360 6 12 13 22 23 148 225 216 209 208 208 185 198 203
54 13 309 292 350 101 108 61 18 82 100 130 120 86 64 29 14 36 38 44 42 38 35 23 15 9 10 6 5 359 358 356 2 1 359 360 8 11 14 13 359 212 218 213 212 203 189 201 215
33 15 339 306 95 84 85 353 341 253 143 147 100 306 353 40 18 16 32 44 42 38 32 22 12 6 11 3 4 360 358 1 360 358 357 356 359 6 10 9 6 353 221 214 216 207 200 184 203
10 332 335 327 76 67 131 274 265 289 353 28 26 36 16 15 7 11 20 35 37 35 29 20 11 6 11 8 5 3 358 356 355 352 350 353 357 358 6 4 10 11 342 221 221 217 208 199 166
293 332 293 58 75 111 331 63 270 270 264 310 343 54 33 50 33 26 27 26 21 20 25 15 11 5 9 12 4 4 1 353 352 353 351 351 355 354 352 360 4 5 6 329 224 217 208 210 184
304 354 23 38 80 36 266 128 274 224 216 266 281 350 62 61 47 52 51 37 27 15 10 13 9 6 10 13 6 5 5 357 350 351 354 353 352 348 347 351 355 0 355 353 260 223 209 207 192
29 43 350 7 8 234 290 35 244 247 244 246 262 173 127 74 44 32 29 21 18 16 9 1 6 4 11 16 12 5 4 0 352 353 351 351 348 345 343 344 349 349 349 344 306 241 211 207 203
53 91 125 253 270 269 306 234 262 226 247 267 357 166 153 83 13 22 15 10 7 3 5 359 354 357 9 12 11 5 1 360 358 353 353 348 347 341 338 339 344 347 351 340 323 280 222 222 222
347 25 177 188 270 304 265 292 311 241 257 251 259 2 259 335 341 331 340 351 353 353 349 351 350 350 18 11 6 1 356 357 355 356 353 346 345 340 339 340 344 349 351 345 335 309 265 232 231
133 197 20 22 339 297 293 287 239 235 245 297 316 296 286 260 304 306 327 337 343 338 343 348 354 10 19 6 357 355 357 355 354 355 355 347 347 344 345 345 347 354 351 342 333 319 303 264 230
2 60 70 170 145 197 295 269 219 217 212 241 248 255 277 257 269 301 314 328 335 329 343 348 1 33 13 1 355 352 358 357 353 352 354 352 346 348 352 354 355 0 358 351 343 342 320 297 250
200 202 155 129 255 214 165 272 244 201 223 241 260 291 286 288 294 305 310 322 341 327 332 344 54 18 13 2 356 355 359 1 359 354 352 354 353 359 0 2 4 4 0 356 351 342 336 327 293
Height
776 775 773 775 803 810 813 809 798 797 802 805 794 800 819 826 829 836 836 833 826 822 817 810 810 818 815 813 810 812 810 811 809 810 807 808 812 810 811 812 815 818 820 820 820 822 823 825 827
775 774 774 785 815 825 816 809 808 802 796 802 806 813 817 832 836 838 837 834 831 826 819 818 811 813 815 814 814 813 810 813 813 811 811 811 814 815 814 816 819 820 820 822 822 824 825 827 829
776 775 785 802 820 825 824 815 808 803 798 797 812 820 827 841 843 845 843 837 833 829 825 823 817 815 819 817 816 816 814 814 814 813 813 815 818 817 817 818 820 821 820 822 824 825 828 830 832
775 778 789 812 818 827 822 821 811 801 801 806 813 830 845 848 848 849 844 838 834 830 827 822 821 819 818 820 819 819 816 815 814 813 816 819 821 819 820 820 821 821 820 822 824 827 831 833 836
776 789 815 817 832 833 830 826 813 807 812 818 817 850 849 852 852 850 847 842 834 834 829 824 818 824 820 821 822 819 817 814 813 814 818 820 820 820 821 821 820 823 822 824 828 829 833 836 838
788 793 825 839 838 833 832 830 820 825 830 828 831 838 853 855 853 852 850 846 840 836 833 829 827 822 822 823 820 819 815 815 816 817 819 819 819 820 820 822 821 823 823 826 829 832 836 837 840
794 812 830 838 842 842 837 825 830 835 839 837 835 849 862 858 857 855 852 851 846 843 838 835 830 827 822 823 822 820 819 817 818 819 818 819 818 819 820 821 822 824 826 825 830 833 836 839 842
790 810 827 835 844 856 846 836 838 837 847 841 841 860 869 864 859 856 855 855 853 850 845 840 835 831 827 824 824 822 820 819 817 819 818 819 818 819 821 822 823 824 826 824 829 832 836 840 843
784 829 844 835 835 854 845 846 845 848 850 853 860 865 869 865 859 856 858 856 855 853 849 845 840 834 831 828 824 822 820 819 817 816 817 818 818 819 821 822 823 825 826 825 828 831 835 839 843
807 841 840 834 842 853 851 847 849 854 860 865 868 871 868 865 862 860 859 859 858 855 853 849 845 840 835 830 826 824 821 819 818 815 815 817 817 817 819 822 823 825 826 826 827 831 834 838 842
816 840 841 846 846 847 853 854 856 860 869 872 874 875 871 868 867 864 864 864 865 862 857 853 848 844 838 833 831 827 822 822 818 814 813 814 815 816 818 821 822 823 824 826 827 829 832 836 840
831 836 834 846 848 851 857 861 867 867 876 874 875 875 872 871 871 869 868 867 866 864 861 857 853 848 843 838 833 830 823 820 816 814 811 811 813 813 814 817 820 820 823 825 826 829 832 835 838
833 840 847 852 855 858 862 869 873 880 879 876 877 877 878 877 875 873 872 870 868 865 863 860 856 851 847 841 836 831 824 818 818 814 811 808 804 811 814 815 818 818 820 822 824 826 830 834 837
841 849 857 861 864 867 870 880 874 888 882 880 880 882 881 880 879 875 873 872 869 869 865 862 858 853 848 843 838 831 826 823 819 817 812 807 805 805 810 812 813 815 818 819 821 823 828 833 836
840 852 862 865 867 874 870 890 895 890 883 884 885 885 884 883 881 879 877 874 872 870 868 864 861 857 853 846 839 834 830 823 821 818 812 808 804 806 806 810 811 812 815 818 820 823 827 832 836
859 866 880 877 870 870 873 904 898 892 887 891 888 887 886 885 884 882 881 877 874 871 867 864 861 857 853 849 843 837 832 827 822 820 814 811 806 805 803 803 809 811 812 815 816 819 825 830 834
885 892 887 889 880 875 879 900 897 892 890 895 895 893 889 888 885 884 882 879 876 873 869 865 862 858 854 850 846 841 836 831 828 820 817 813 806 803 802 802 804 808 811 814 815 815 820 827 833
894 896 901 899 888 889 898 903 896 897 897 899 899 896 893 890 887 885 882 879 877 875 871 868 865 860 856 851 848 844 839 836 828 820 820 815 807 805 801 800 803 805 808 811 813 815 821 826 830
892 897 901 891 881 885 896 907 905 902 902 904 902 899 896 892 889 886 883 879 878 875 872 869 866 862 857 851 844 837 834 833 823 824 822 816 809 806 802 800 800 804 804 808 810 814 812 825 828
894 898 900 890 881 893 907 914 905 903 901 901 900 898 895 891 887 884 881 879 877 875 873 871 868 864 859 855 849 845 839 833 827 827 823 818 812 808 805 801 800 800 803 805 808 811 816 822 825
892 899 898 893 894 903 907 917 915 902 899 896 896 896 893 890 887 883 881 879 878 876 873 872 870 865 860 856 850 845 840 834 828 826 823 820 815 812 807 803 801 799 801 803 805 809 813 816 819
902 894 892 889 895 912 902 942 914 898 898 896 895 895 892 890 887 885 883 881 878 876 874 873 871 866 861 857 852 848 844 839 837 831 828 823 818 812 809 806 802 798 799 801 803 806 808 812 814
898 891 893 888 901 907 906 929 926 900 898 896 893 891 891 889 888 885 883 881 879 878 875 874 872 867 862 858 855 851 847 843 839 835 831 826 818 816 812 807 803 801 800 800 802 804 806 810 812
893 896 896 901 912 946 907 915 940 918 902 894 891 890 891 889 886 884 883 881 880 878 876 874 871 867 863 859 855 852 848 843 839 835 830 826 821 818 814 810 805 802 801 799 800 802 803 806 809
904 916 925 915 941 943 918 933 923 905 896 892 888 889 889 888 886 883 882 881 880 877 875 873 870 867 863 860 857 853 849 845 840 836 831 827 822 819 815 809 805 804 801 800 800 799 800 803 806
905 919 952 946 971 953 912 947 917 896 891 889 888 887 887 886 884 882 881 880 879 876 873 871 869 866 862 859 856 853 849 845 841 838 833 830 826 821 817 812 808 805 803 800 798 798 799 800 803
905 926 913 925 922 933 950 926 907 889 887 886 885 883 885 884 884 881 879 878 877 874 872 870 867 865 862 859 856 853 849 844 842 838 834 831 828 823 818 814 809 805 801 799 797 798 797 798 799
900 906 930 944 970 976 969 951 927 895 891 887 887 887 885 883 880 879 877 876 875 873 870 868 866 864 862 859 855 853 849 845 841 838 834 831 827 822 817 813 810 805 802 800 797 795 794 793 794
913 912 920 928 937 971 1000 943 914 897 886 887 885 881 880 880 878 877 875 874 873 871 869 867 865 863 861 858 855 852 849 845 841 837 833 829 826 821 817 813 809 805 802 800 797 791 793 792 792
898 902 909 937 917 925 954 935 885 886 886 883 882 879 879 877 877 874 873 872 870 869 867 865 864 862 860 857 854 851 848 845 841 836 832 828 824 821 817 814 810 805 803 799 797 794 792 790 789